RH
27 29 63 70 76 79 80 84 86 86 84 83 74 70 69 74 80 77 74 74 76 76 73 70 71 73 74 76 77 77 80 79 77 76 80 81 77 73 73 78 76 71 74
27 28 58 68 72 76 78 80 83 85 86 85 81 78 69 66 71 73 73 70 72 69 72 73 69 75 75 76 76 80 80 78 77 81 80 81 82 76 72 78 82 73 76
23 27 41 65 67 72 75 78 79 83 85 86 85 83 80 68 64 69 71 72 72 72 72 69 74 78 78 78 78 79 77 77 81 77 67 73 76 74 72 78 80 76 76
20 28 41 61 64 66 69 73 76 80 82 84 86 85 86 82 71 67 71 72 74 73 77 73 75 81 82 82 81 79 77 79 80 75 59 61 59 68 66 73 75 74 76
20 24 39 57 61 63 63 68 71 74 77 81 84 86 86 86 85 82 74 78 80 78 80 79 78 82 83 81 82 81 78 79 80 69 64 70 69 62 68 72 74 75 74
21 24 36 53 57 59 60 64 65 68 71 74 79 83 86 88 87 86 87 82 81 81 80 78 83 83 84 82 81 82 80 82 82 62 57 66 65 58 63 71 76 73 72
25 30 36 48 52 55 56 61 62 64 65 69 72 76 83 86 88 87 87 88 83 81 82 78 80 82 84 83 83 84 85 84 76 62 63 60 65 57 57 66 72 71 71
29 29 34 38 46 50 50 56 58 58 59 62 64 69 74 83 86 85 87 87 87 82 81 79 80 82 84 84 84 88 86 89 68 60 64 64 67 57 65 69 69 71 71
34 34 34 38 37 45 43 51 53 54 56 56 58 63 66 71 80 86 84 88 89 90 84 82 82 82 85 83 87 90 86 88 72 60 61 68 74 58 62 68 76 74 75
34 40 35 36 39 41 44 46 49 50 51 53 54 57 59 63 70 82 85 89 89 89 87 84 85 85 85 85 88 88 85 86 79 61 64 70 71 57 58 65 77 76 77
38 40 38 40 38 42 34 38 48 47 48 50 49 53 55 60 69 68 84 88 91 90 90 86 85 84 86 89 89 88 89 78 64 65 66 77 65 58 60 67 74 76 79
39 43 44 43 44 39 28 46 49 40 50 47 45 45 49 49 68 68 78 87 89 90 92 87 86 85 90 95 97 92 88 73 59 72 70 77 63 62 67 78 73 78 80
37 46 48 43 44 45 45 50 53 51 54 57 50 49 47 48 60 71 84 91 91 84 86 90 91 90 86 86 86 87 82 67 60 70 76 78 67 64 64 80 79 78 80
40 44 47 47 43 45 58 56 56 54 52 54 54 54 54 56 53 54 65 79 86 83 88 91 94 88 76 74 75 76 72 65 61 75 81 81 73 64 63 79 78 78 79
39 43 46 44 46 42 45 56 55 58 59 56 56 56 57 55 56 54 58 62 74 81 86 94 96 88 83 77 70 66 61 55 56 72 83 84 78 73 67 75 76 74 78
38 42 43 43 44 44 48 51 56 58 57 60 59 56 51 56 57 57 58 61 68 74 81 86 95 93 88 85 74 57 54 57 61 75 82 88 80 77 75 71 73 73 74
41 39 42 39 44 45 48 52 57 60 56 62 59 56 51 50 55 57 61 66 71 74 81 87 89 91 94 88 83 60 54 51 64 74 77 88 85 80 78 66 68 70 71
41 41 42 33 46 47 47 53 51 56 59 62 61 59 56 54 52 58 64 66 70 76 76 82 88 96 95 93 92 94 80 64 58 69 71 78 80 74 80 78 74 70 71
38 40 43 42 45 50 48 53 53 50 59 60 60 58 52 55 55 57 59 64 67 74 79 80 80 91 95 93 93 97 96 88 62 52 62 71 77 76 79 82 80 80 77
39 40 40 43 46 48 55 53 54 56 59 61 61 56 55 54 55 58 59 60 67 73 78 79 81 81 92 93 90 92 93 92 75 67 63 63 69 70 73 82 88 92 86
44 39 43 49 50 54 56 56 58 60 63 64 64 56 54 56 56 58 61 61 66 71 73 72 76 81 85 90 91 95 97 91 77 73 68 68 69 71 82 94 97 88 80
49 45 52 53 54 56 58 57 58 60 63 64 63 59 59 57 60 53 58 64 68 74 74 76 82 88 86 86 95 94 98 98 94 75 70 64 72 78 84 88 87 79 77
66 61 53 62 62 59 55 59 58 59 60 64 64 66 60 57 60 61 58 62 66 70 77 76 79 80 89 84 93 90 99 96 93 91 73 74 75 84 86 84 85 75 72
89 63 71 69 71 56 65 66 65 62 61 62 65 65 64 58 59 61 62 60 65 69 74 76 70 78 83 85 80 90 67 84 89 99 94 75 70 78 78 80 79 76 70
90 92 87 84 82 76 78 73 74 71 66 63 66 67 64 62 59 60 61 62 64 69 71 74 76 78 78 83 82 89 87 73 65 79 92 91 78 72 71 70 69 68 63
93 94 92 88 88 88 90 88 80 77 69 65 69 74 72 69 68 65 64 64 65 68 71 73 76 76 77 80 79 76 93 78 78 71 76 83 75 78 72 72 71 73 76
Wind_Speed
8 9 18 22 22 23 24 25 25 23 21 20 9 4 5 5 6 4 3 3 2 5 7 7 8 9 11 12 14 15 16 17 17 16 15 14 13 14 15 17 16 10 13
6 9 16 21 22 22 23 24 24 24 23 20 17 12 4 3 4 3 1 1 2 4 4 5 7 9 13 13 12 14 15 14 13 12 13 13 11 14 14 15 12 12 14
7 9 11 20 21 22 23 23 23 23 22 22 20 17 14 4 3 3 2 2 4 5 4 1 7 11 13 14 12 13 14 11 9 5 11 6 7 13 14 12 12 15 15
7 7 9 18 19 20 21 22 22 22 22 20 21 19 17 15 5 5 4 2 3 3 5 1 5 10 12 12 12 12 10 8 5 5 6 7 8 11 13 13 12 15 16
8 9 10 16 18 19 19 21 21 21 20 20 19 19 18 16 14 12 7 5 3 4 2 4 6 9 10 11 12 10 7 4 3 2 7 6 6 8 11 14 12 15 15
9 9 10 15 16 17 18 20 20 20 20 20 19 18 18 17 15 13 15 6 6 4 2 5 8 9 10 10 11 9 6 3 2 6 5 10 6 9 9 11 12 13 14
7 6 6 14 16 18 17 19 19 19 19 19 19 19 18 16 15 16 15 11 6 5 2 5 9 10 9 11 10 8 4 1 3 3 6 8 6 8 8 9 10 11 12
7 8 8 12 16 17 16 19 19 19 19 19 19 19 19 17 16 13 16 15 11 3 3 4 9 10 10 10 10 7 6 2 5 6 6 7 7 6 10 11 8 8 9
7 6 6 6 12 16 16 18 18 19 19 19 19 20 20 18 17 15 14 15 17 15 2 4 6 9 9 10 10 5 5 2 2 3 7 5 8 4 6 8 5 9 9
6 6 7 7 8 8 5 18 18 19 19 19 19 20 19 17 20 19 16 15 14 14 7 5 7 10 9 9 9 6 5 4 2 8 6 6 8 3 4 6 7 11 10
7 7 6 7 7 8 8 11 13 17 18 19 17 21 13 8 10 15 17 16 15 11 11 6 8 10 9 8 9 7 5 4 3 4 5 12 9 4 4 5 5 10 10
6 6 7 7 7 8 9 7 7 9 6 7 9 12 9 9 8 11 14 18 15 17 12 8 10 10 8 4 3 4 3 6 2 5 4 13 8 7 4 4 3 10 10
6 5 6 6 6 6 6 5 4 4 4 4 9 9 8 7 6 5 5 7 8 10 7 4 5 4 7 6 5 4 5 5 1 5 8 11 10 9 4 4 10 11 10
6 6 6 6 6 6 4 4 5 5 5 5 6 8 6 6 8 7 6 7 8 7 9 9 3 8 9 7 8 7 7 5 2 4 7 14 10 10 5 4 8 11 12
6 6 6 5 5 5 5 4 4 5 5 5 5 6 5 5 6 7 7 6 6 8 8 8 5 4 8 9 7 8 8 7 5 4 4 11 10 9 9 7 9 11 13
6 5 5 5 5 5 4 5 4 4 4 4 5 6 7 4 5 6 7 7 7 7 7 9 8 5 5 5 9 11 9 6 6 7 5 5 10 9 11 9 10 11 13
4 4 4 4 5 6 6 5 4 4 5 4 4 6 8 7 5 6 6 6 7 7 10 9 10 10 5 6 8 9 10 6 8 9 7 4 6 9 11 10 7 7 11
4 4 4 5 5 6 5 5 4 4 4 4 4 4 7 8 9 7 6 6 7 7 7 7 8 9 7 7 7 3 3 2 6 9 7 6 5 4 5 10 9 9 9
4 3 3 4 5 5 4 4 4 5 4 4 4 5 7 8 8 7 7 6 8 7 7 7 8 9 11 8 7 5 3 2 5 8 8 10 8 6 4 7 8 6 9
3 3 4 4 5 5 4 4 4 3 4 4 4 6 9 8 9 8 7 9 7 6 6 6 9 9 11 11 9 6 6 6 6 4 6 9 9 8 7 7 5 4 8
4 2 5 5 5 4 3 3 3 3 4 4 4 8 10 9 10 10 7 8 8 7 8 9 8 10 11 14 9 7 4 4 7 7 5 4 9 6 6 6 4 4 6
4 4 4 4 4 3 2 3 2 3 3 4 4 7 7 7 8 9 9 9 9 7 8 8 7 6 8 10 9 9 7 3 4 6 7 7 6 6 6 7 7 7 5
4 4 2 2 3 3 4 3 3 3 3 4 4 5 7 9 10 10 11 10 11 9 8 9 8 9 8 13 15 7 6 6 10 3 8 8 8 6 5 7 7 10 9
4 1 2 2 2 3 5 4 5 4 6 4 6 6 7 10 10 11 12 12 12 9 10 9 9 8 8 13 12 14 13 9 11 6 3 8 9 9 8 7 8 9 9
5 4 2 2 2 2 3 4 4 5 5 6 7 10 10 9 11 11 12 12 12 10 11 12 12 11 9 12 11 13 14 9 14 9 9 9 5 9 9 10 9 9 10
5 5 3 1 2 2 2 4 5 6 8 8 9 10 9 8 8 10 12 12 12 13 13 12 13 15 13 13 13 15 14 11 13 11 9 13 14 9 8 6 7 5 7
Wind_Direction
7 10 359 6 10 9 18 20 25 31 34 29 22 49 76 72 96 98 80 105 95 105 100 105 116 111 94 85 82 77 78 87 89 85 75 59 54 50 51 49 57 52 59
14 14 4 9 11 11 16 21 22 26 30 31 30 27 35 51 37 97 85 357 348 99 118 134 133 115 106 91 88 93 98 99 104 104 97 70 48 55 61 57 56 65 59
29 22 2 11 13 12 17 20 21 23 26 26 27 27 22 357 345 8 358 340 332 47 52 138 136 111 107 103 103 111 108 112 114 90 79 97 62 58 64 61 60 65 63
37 37 3 13 14 18 17 20 18 21 20 26 25 25 24 15 336 330 337 329 330 14 58 68 126 120 113 109 100 107 113 93 83 45 63 70 71 63 57 58 64 69 63
42 42 7 15 15 16 18 19 19 19 19 19 22 20 20 13 9 3 312 337 359 6 35 96 131 130 121 115 113 117 117 110 49 41 58 65 69 59 54 55 56 68 69
43 35 14 16 16 17 18 18 17 19 15 18 15 17 14 13 12 356 1 338 340 4 352 134 139 139 131 114 121 136 146 114 2 86 68 78 51 67 63 61 52 73 73
50 49 13 19 14 17 19 16 15 13 15 16 14 12 7 9 11 5 6 351 329 331 277 152 152 147 137 131 131 149 172 149 306 87 80 87 71 60 63 65 62 70 75
41 44 35 19 18 16 15 16 13 13 11 15 13 10 8 6 6 12 359 5 348 328 285 177 161 162 154 149 142 166 176 218 354 87 117 89 83 76 47 66 53 71 73
65 45 37 24 22 12 11 14 12 12 11 10 10 10 5 2 1 10 8 17 360 348 265 210 175 166 169 160 150 187 207 246 11 113 95 91 76 91 73 45 14 98 84
68 46 25 17 20 3 353 13 11 12 8 7 7 7 3 4 359 358 3 356 345 343 305 232 183 174 173 154 142 193 221 259 266 104 113 120 120 92 98 41 51 94 91
65 55 24 15 13 3 6 8 9 7 7 4 3 3 360 358 359 348 342 347 332 321 310 239 209 182 173 152 162 194 232 254 209 117 121 131 110 107 120 32 45 102 95
60 53 36 13 6 10 6 357 5 0 2 351 7 354 355 351 351 350 340 336 337 340 282 242 207 190 157 137 161 213 237 267 122 124 122 128 123 134 89 359 158 107 99
79 59 38 19 11 20 356 7 356 357 357 347 5 345 351 343 347 348 346 341 337 343 334 230 201 173 167 157 165 205 238 267 185 138 144 133 145 151 105 52 142 124 108
81 67 45 26 20 14 352 -0 350 358 353 1 341 346 347 350 344 347 345 341 338 332 321 315 206 175 176 177 163 192 229 248 182 136 156 148 159 162 150 106 145 135 118
79 65 50 30 28 5 13 356 352 345 346 343 340 330 345 341 337 341 331 331 334 330 329 320 283 222 196 180 167 188 219 235 176 142 146 154 160 162 165 158 157 134 124
90 68 48 36 34 8 6 3 346 335 332 336 330 331 332 330 326 332 333 327 324 326 325 320 318 245 210 210 191 181 221 222 136 141 136 163 152 163 164 162 156 146 126
100 75 39 35 35 22 3 355 341 326 339 326 322 325 330 331 326 323 323 326 323 320 331 328 313 304 193 194 219 206 194 220 140 144 144 156 147 160 181 164 173 149 142
116 89 68 31 29 14 0 347 326 317 319 313 325 319 327 333 338 332 327 316 315 317 315 319 316 315 230 197 191 193 225 166 154 151 149 155 161 170 180 179 182 193 159
116 84 49 50 31 20 348 322 309 311 318 309 337 341 327 326 326 323 317 314 317 311 311 318 306 303 313 206 199 171 191 160 247 171 163 164 173 177 163 196 177 209 203
142 79 58 48 35 8 343 331 320 335 340 338 329 321 327 324 323 319 311 306 301 301 303 304 304 302 290 279 186 168 191 201 178 189 182 164 176 180 174 167 185 195 209
147 87 61 40 20 16 355 330 343 323 321 322 326 320 316 309 309 307 299 294 296 290 291 295 297 300 300 301 181 182 202 207 182 170 168 179 167 170 160 150 172 175 187
137 84 57 38 13 2 350 317 281 289 284 285 283 284 286 298 310 304 310 313 307 301 296 295 302 298 277 267 255 165 177 189 221 199 167 165 172 162 158 155 166 172 165
138 88 43 39 4 349 330 316 315 318 322 323 322 335 314 305 304 298 295 293 295 293 287 284 281 274 281 291 289 215 162 194 153 201 194 149 164 167 168 173 169 180 185
149 177 123 19 349 316 344 323 333 314 308 308 311 301 292 287 282 280 280 279 279 279 273 271 266 259 262 270 296 275 188 142 165 155 263 155 158 176 182 185 187 192 185
150 179 174 214 276 312 325 332 324 314 306 308 301 294 288 282 275 272 271 270 269 270 270 268 265 257 247 261 260 269 271 174 189 157 172 187 143 185 192 191 184 192 197
167 165 194 233 278 325 332 316 309 302 305 301 292 290 286 283 278 269 269 266 269 268 269 266 261 254 247 242 247 265 272 224 179 173 154 193 180 165 178 191 181 180 175